Regional Weather Roundup
Issued by NWS

Home | Current Version | Previous Version | Text Only | Print | Product List | Glossary On
Versions: 1 2 3 4 5 6 7 8 9 10 11 12 13 14 15 16 17 18 19 20 21 22 23 24 25 26 27 28 29 30 31 32 33 34 35 36 37 38 39 40 41 42 43 44 45 46 47 48 49 50
000
ASUS45 KPSR 212310
RWRAZ

ARIZONA HOURLY REGIONAL WEATHER ROUNDUP
NATIONAL WEATHER SERVICE PHOENIX AZ
400 PM MST SAT JAN 21 2017

NOTE: FAIR INDICATES FEW OR NO CLOUDS BELOW 12,000 FEET WITH NO
SIGNIFICANT WEATHER AND/OR OBSTRUCTIONS TO VISIBILITY.

AZZ001>003-036-220000-
NORTHWEST ARIZONA

CITY           SKY/WX    TMP DP  RH WIND       PRES   REMARKS
BULLHEAD CITY  SUNNY     63  32  31 SE3       29.84R
KINGMAN        SUNNY     49  26  41 SW17      29.85R
$$

AZZ004>008-015-016-018-220000-
NORTH CENTRAL ARIZONA

CITY           SKY/WX    TMP DP  RH WIND       PRES   REMARKS
GRAND CANYON   PTSUNNY   32  27  81 W8        29.78R WCI  25
WILLIAMS       PTSUNNY   30  23  74 W13G18    29.81R WCI  20
PRESCOTT       PTSUNNY   39  31  72 W10       29.85R WCI  32
FLAGSTAFF      CLOUDY    29  21  72 W10G21    29.78R WCI  20
PAYSON         PTSUNNY   37  32  81 W8        29.86R WCI  31
PAGE           CLOUDY    45  18  34 W13G21    29.70R
$$

AZZ009>014-017-220000-
NORTHEAST ARIZONA

CITY           SKY/WX    TMP DP  RH WIND       PRES   REMARKS
WINSLOW        SUNNY     43  26  51 W24G36    29.75R
SAINT JOHNS    CLOUDY    37  27  67 W23G32    29.70R WCI  26
SHOW LOW       MOSUNNY   30  23  74 SW15      29.77R WCI  19
$$

AZZ023-220000-
GREATER PHOENIX AREA

CITY           SKY/WX    TMP DP  RH WIND       PRES   REMARKS
PHOENIX        MOSUNNY   59  32  36 W12       29.87R
BUCKEYE        SUNNY     57  34  41 W14G21    29.88S
GLENDALE       MOSUNNY   59  34  38 SW15      29.88R
LUKE AFB       SUNNY     59  35  39 W14       29.86R
DEER VALLEY    SUNNY     56  34  43 W16       29.86R
SCOTTSDALE     MOSUNNY   57  32  38 W13G21    29.89R
MESA-FALCON    MOSUNNY  N/A N/A N/A SW23G35   29.84R
CHANDLER       MOSUNNY   59  37  44 SW16G32   29.88R
$$

AZZ027-028-220000-
SOUTHWEST MARICOPA COUNTY AND PINAL COUNTY

CITY           SKY/WX    TMP DP  RH WIND       PRES   REMARKS
CASA GRANDE    SUNNY     56  35  45 W14       29.90R
GILA BEND      FAIR      60  35  40 W21       29.89R
$$

AZZ503-504-507>509-220000-
SOUTHEAST ARIZONA

CITY           SKY/WX    TMP DP  RH WIND       PRES   REMARKS
TUCSON         MOSUNNY   55  29  36 NW18G26   29.92R
DAVIS-MONTHAN  SUNNY     54  27  36 W16G25    29.91R
NOGALES        MOSUNNY   51  23  33 W16G24    29.93R
SIERRA VISTA   SUNNY     46  25  44 W28       29.89R
DOUGLAS        MOSUNNY   49  27  42 W23G33    29.88R
SAFFORD        CLOUDY    47  30  51 NW24G37   29.83R
$$

AZZ020-021-025-026-031-220000-
SOUTHWEST ARIZONA

CITY           SKY/WX    TMP DP  RH WIND       PRES   REMARKS
YUMA           SUNNY     64  37  36 W17       29.91R
$$

CAZ031-033-041-043-047-048-061-220000-
SOUTHERN CALIFORNIA

CITY           SKY/WX    TMP DP  RH WIND       PRES   REMARKS
DOWNTOWN L.A.  PTSUNNY   61  45  55 CALM      29.95R
L.A. AIRPORT   PTSUNNY   57  46  66 W18       29.97R
SAN DIEGO      PTSUNNY   60  43  53 W8        30.02R
BURBANK        PTSUNNY   59  41  51 S9        29.94R
ONTARIO        PTSUNNY   55  41  59 SW7       29.96R
RIVERSIDE      PTSUNNY   57  41  55 NE6       29.97R
PALM SPRINGS   MOSUNNY   63  36  36 W21G33    29.91R
EL CENTRO NAS  MOSUNNY   64  37  36 W24       29.92R
IMPERIAL       SUNNY     65  40  39 W20       29.91R
BLYTHE         SUNNY     64  34  32 SW10      29.88R
NEEDLES        SUNNY     64  28  25 W8        29.84R
$$

NVZ020-UTZ003-220000-
SOUTHERN NEVADA-UTAH

CITY           SKY/WX    TMP DP  RH WIND       PRES   REMARKS
LAS VEGAS      MOSUNNY   56  26  31 SW12      29.80R
SALT LAKE CITY CLOUDY    35  31  85 SE6       29.72R WCI  30
$$

NMZ009-TXZ055-220000-
NEW MEXICO-WEST TEXAS

CITY           SKY/WX    TMP DP  RH WIND       PRES   REMARKS
ALBUQUERQUE    MOSUNNY   41  19  41 W21G32    29.55R
EL PASO        MOSUNNY   49  24  37 W37G59    29.67R
$$


........................KEY........................
SKY/WX - SKY CONDITION/WEATHER
TMP    - TEMPERATURE IN FAHRENHEIT
DP     - DEW POINT IN FAHRENHEIT
RH     - RELATIVE HUMIDITY IN PERCENT
WIND   - DIRECTION AND SPEED IN MILES PER HOUR (MPH)
VRB    - VARIABLE WIND DIRECTION
PRES   - MEAN SEA LEVEL PRESSURE IN INCHES OF MERCURY
         F - FALLING PRESSURE   R - RISING PRESSURE
         S - STEADY PRESSURE
VSB    - VISIBILITY IN MILES
HX     - HEAT INDEX IN FAHRENHEIT
WCI    - WIND CHILL INDEX IN FAHRENHEIT
TC     - TEMPERATURE IN CELSIUS WHICH IS ALSO KNOWN AS
         TEMPERATURE IN CENTIGRADE
AFB    - AIR FORCE BASE
         LUKE AFB IS LUKE AIR FORCE BASE
         DAVIS-MONTHAN IS DAVIS-MONTHAN AIR FORCE BASE
NAS    - NAVAL AIR STATION
         EL CENTRO NAS IS EL CENTRO NAVAL AIR STATION
N/A    - NOT AVAILABLE




USA.gov is the U.S. government's official web portal to all federal, state and local government web resources and services.